Time,TemperatureF,DewpointF,PressureIn,WindDirection,WindDirectionDegrees,WindSpeedMPH,WindSpeedGustMPH,Humidity,HourlyPrecipIn,Conditions,Clouds,dailyrainin,SoftwareType,DateUTC
2013-12-10 00:14:00,68.9,67.0,30.15,ESE,115,0.0,-999.0,92,-99.99,,,0.00,weatherlink.com 1.10,2013-12-10 05:14:00,
2013-12-10 00:29:00,68.8,66.0,30.14,ESE,115,0.0,-999.0,92,-99.99,,,0.00,weatherlink.com 1.10,2013-12-10 05:29:00,
2013-12-10 00:44:00,68.6,67.0,30.14,ESE,115,0.0,-999.0,93,-99.99,,,0.00,weatherlink.com 1.10,2013-12-10 05:44:00,
2013-12-10 00:59:00,68.3,66.0,30.14,ESE,115,0.0,-999.0,93,-99.99,,,0.00,weatherlink.com 1.10,2013-12-10 05:59:00,
2013-12-10 01:14:00,68.5,67.0,30.14,ESE,115,0.0,-999.0,93,-99.99,,,0.00,weatherlink.com 1.10,2013-12-10 06:14:00,
2013-12-10 01:29:00,68.7,67.0,30.14,ESE,115,0.0,-999.0,93,-99.99,,,0.00,weatherlink.com 1.10,2013-12-10 06:29:00,
2013-12-10 01:44:00,68.5,67.0,30.13,ESE,116,0.0,-999.0,93,-99.99,,,0.00,weatherlink.com 1.10,2013-12-10 06:44:00,
2013-12-10 01:59:00,68.4,66.0,30.13,ESE,115,0.0,-999.0,93,-99.99,,,0.00,weatherlink.com 1.10,2013-12-10 06:59:00,
2013-12-10 02:29:00,68.5,67.0,30.12,ESE,113,0.0,-999.0,94,-99.99,,,0.00,weatherlink.com 1.10,2013-12-10 07:29:00,
2013-12-10 02:44:00,68.5,67.0,30.12,ESE,113,2.0,-999.0,94,-99.99,,,0.00,weatherlink.com 1.10,2013-12-10 07:44:00,
2013-12-10 02:59:00,68.7,67.0,30.12,ESE,112,4.0,-999.0,95,-99.99,,,0.00,weatherlink.com 1.10,2013-12-10 07:59:00,
2013-12-10 03:14:00,68.7,67.0,30.12,ESE,112,0.0,-999.0,95,-99.99,,,0.00,weatherlink.com 1.10,2013-12-10 08:14:00,
2013-12-10 03:29:00,68.6,67.0,30.12,ESE,112,0.0,-999.0,95,-99.99,,,0.00,weatherlink.com 1.10,2013-12-10 08:29:00,
2013-12-10 03:44:00,68.5,67.0,30.12,ESE,112,0.0,-999.0,95,-99.99,,,0.00,weatherlink.com 1.10,2013-12-10 08:44:00,
2013-12-10 03:59:00,68.5,67.0,30.12,ESE,112,0.0,-999.0,96,-99.99,,,0.00,weatherlink.com 1.10,2013-12-10 08:59:00,
2013-12-10 04:14:00,68.4,67.0,30.12,ESE,112,0.0,-999.0,96,-99.99,,,0.00,weatherlink.com 1.10,2013-12-10 09:14:00,
2013-12-10 04:29:00,68.4,67.0,30.12,ESE,112,0.0,-999.0,96,-99.99,,,0.00,weatherlink.com 1.10,2013-12-10 09:29:00,
2013-12-10 04:44:00,68.2,67.0,30.12,ESE,112,0.0,-999.0,96,-99.99,,,0.00,weatherlink.com 1.10,2013-12-10 09:44:00,
2013-12-10 04:59:00,68.3,68.0,30.13,ESE,112,0.0,-999.0,97,-99.99,,,0.00,weatherlink.com 1.10,2013-12-10 09:59:00,
2013-12-10 05:14:00,68.3,68.0,30.13,ESE,112,0.0,-999.0,97,-99.99,,,0.00,weatherlink.com 1.10,2013-12-10 10:14:00,
2013-12-10 05:29:00,68.2,67.0,30.13,ESE,112,0.0,-999.0,97,-99.99,,,0.00,weatherlink.com 1.10,2013-12-10 10:29:00,
2013-12-10 05:44:00,67.9,67.0,30.13,ESE,112,0.0,-999.0,97,-99.99,,,0.00,weatherlink.com 1.10,2013-12-10 10:44:00,
2013-12-10 05:59:00,67.6,67.0,30.13,ESE,112,0.0,-999.0,97,-99.99,,,0.00,weatherlink.com 1.10,2013-12-10 10:59:00,
2013-12-10 06:14:00,67.3,67.0,30.13,ESE,112,0.0,-999.0,97,-99.99,,,0.00,weatherlink.com 1.10,2013-12-10 11:14:00,
2013-12-10 06:29:00,67.1,66.0,30.14,ESE,112,0.0,-999.0,97,-99.99,,,0.00,weatherlink.com 1.10,2013-12-10 11:29:00,
2013-12-10 06:45:00,66.9,66.0,30.14,ESE,112,0.0,-999.0,97,-99.99,,,0.00,weatherlink.com 1.10,2013-12-10 11:45:00,
2013-12-10 07:00:00,66.8,66.0,30.14,ESE,112,0.0,-999.0,97,-99.99,,,0.00,weatherlink.com 1.10,2013-12-10 12:00:00,
2013-12-10 07:15:00,66.7,66.0,30.15,ESE,112,0.0,-999.0,98,-99.99,,,0.00,weatherlink.com 1.10,2013-12-10 12:15:00,
2013-12-10 07:30:00,66.6,66.0,30.15,ESE,112,0.0,-999.0,98,-99.99,,,0.00,weatherlink.com 1.10,2013-12-10 12:30:00,
2013-12-10 07:45:00,66.9,66.0,30.16,ESE,112,0.0,-999.0,98,-99.99,,,0.00,weatherlink.com 1.10,2013-12-10 12:45:00,
2013-12-10 08:00:00,67.4,67.0,30.16,ESE,112,0.0,-999.0,99,-99.99,,,0.00,weatherlink.com 1.10,2013-12-10 13:00:00,
2013-12-10 08:15:00,68.3,68.0,30.17,ESE,112,0.0,-999.0,99,-99.99,,,0.00,weatherlink.com 1.10,2013-12-10 13:15:00,
2013-12-10 08:30:00,69.7,69.0,30.17,ESE,112,0.0,-999.0,99,-99.99,,,0.00,weatherlink.com 1.10,2013-12-10 13:30:00,
2013-12-10 08:45:00,71.1,71.0,30.18,ESE,112,0.0,-999.0,99,-99.99,,,0.00,weatherlink.com 1.10,2013-12-10 13:45:00,
2013-12-10 09:00:00,72.6,72.0,30.18,ESE,110,0.0,-999.0,99,-99.99,,,0.00,weatherlink.com 1.10,2013-12-10 14:00:00,
2013-12-10 09:15:00,74.5,73.0,30.18,ESE,109,4.0,-999.0,95,-99.99,,,0.00,weatherlink.com 1.10,2013-12-10 14:15:00,
2013-12-10 09:30:00,76.7,74.0,30.18,ESE,115,1.0,-999.0,90,-99.99,,,0.00,weatherlink.com 1.10,2013-12-10 14:30:00,
2013-12-10 09:45:00,78.5,74.0,30.18,SE,134,1.0,-999.0,87,-99.99,,,0.00,weatherlink.com 1.10,2013-12-10 14:45:00,
2013-12-10 10:00:00,79.8,74.0,30.18,SE,142,5.0,-999.0,81,-99.99,,,0.00,weatherlink.com 1.10,2013-12-10 15:00:00,
2013-12-10 10:15:00,81.1,74.0,30.18,SSE,168,4.0,-999.0,78,-99.99,,,0.00,weatherlink.com 1.10,2013-12-10 15:15:00,
2013-12-10 10:30:00,82.0,75.0,30.18,SE,124,0.0,-999.0,78,-99.99,,,0.00,weatherlink.com 1.10,2013-12-10 15:30:00,
2013-12-10 10:45:00,82.8,75.0,30.18,SE,134,0.0,-999.0,76,-99.99,,,0.00,weatherlink.com 1.10,2013-12-10 15:45:00,
2013-12-10 11:00:00,83.9,74.0,30.18,SSE,162,7.0,-999.0,73,-99.99,,,0.00,weatherlink.com 1.10,2013-12-10 16:00:00,
2013-12-10 11:15:00,84.2,73.0,30.18,South,170,4.0,-999.0,70,-99.99,,,0.00,weatherlink.com 1.10,2013-12-10 16:15:00,
2013-12-10 11:30:00,85.4,74.0,30.17,SSE,148,0.0,-999.0,69,-99.99,,,0.00,weatherlink.com 1.10,2013-12-10 16:30:00,
2013-12-10 11:45:00,85.3,74.0,30.16,SSE,155,0.0,-999.0,69,-99.99,,,0.00,weatherlink.com 1.10,2013-12-10 16:45:00,
2013-12-10 12:00:00,85.8,74.0,30.16,SE,125,0.0,-999.0,68,-99.99,,,0.00,weatherlink.com 1.10,2013-12-10 17:00:00,
2013-12-10 12:16:00,86.7,73.0,30.15,SE,140,0.0,-999.0,64,-99.99,,,0.00,weatherlink.com 1.10,2013-12-10 17:16:00,
2013-12-10 12:31:00,86.8,74.0,30.15,SE,130,0.0,-999.0,66,-99.99,,,0.00,weatherlink.com 1.10,2013-12-10 17:31:00,
2013-12-10 12:46:00,86.3,72.0,30.14,SSE,157,0.0,-999.0,63,-99.99,,,0.00,weatherlink.com 1.10,2013-12-10 17:46:00,
2013-12-10 13:01:00,85.2,73.0,30.14,South,181,0.0,-999.0,67,-99.99,,,0.00,weatherlink.com 1.10,2013-12-10 18:01:00,
2013-12-10 13:16:00,84.2,72.0,30.13,SW,231,1.0,-999.0,67,-99.99,,,0.00,weatherlink.com 1.10,2013-12-10 18:16:00,
2013-12-10 13:31:00,83.9,73.0,30.12,WSW,238,0.0,-999.0,69,-99.99,,,0.00,weatherlink.com 1.10,2013-12-10 18:31:00,
2013-12-10 13:46:00,83.4,71.0,30.11,SW,223,0.0,-999.0,67,-99.99,,,0.00,weatherlink.com 1.10,2013-12-10 18:46:00,
2013-12-10 14:01:00,83.2,72.0,30.11,WSW,239,0.0,-999.0,68,-99.99,,,0.00,weatherlink.com 1.10,2013-12-10 19:01:00,
2013-12-10 14:16:00,83.3,72.0,30.11,SW,214,0.0,-999.0,69,-99.99,,,0.00,weatherlink.com 1.10,2013-12-10 19:16:00,
2013-12-10 14:31:00,83.0,72.0,30.11,SSW,209,0.0,-999.0,69,-99.99,,,0.00,weatherlink.com 1.10,2013-12-10 19:31:00,
2013-12-10 14:46:00,82.9,72.0,30.10,South,169,0.0,-999.0,70,-99.99,,,0.00,weatherlink.com 1.10,2013-12-10 19:46:00,
2013-12-10 15:01:00,82.7,72.0,30.10,South,177,0.0,-999.0,71,-99.99,,,0.00,weatherlink.com 1.10,2013-12-10 20:01:00,
2013-12-10 15:16:00,82.6,73.0,30.10,SSW,206,0.0,-999.0,73,-99.99,,,0.00,weatherlink.com 1.10,2013-12-10 20:16:00,
2013-12-10 15:31:00,82.4,73.0,30.10,WSW,246,0.0,-999.0,73,-99.99,,,0.00,weatherlink.com 1.10,2013-12-10 20:31:00,
2013-12-10 15:46:00,82.0,73.0,30.10,WSW,249,2.0,-999.0,75,-99.99,,,0.00,weatherlink.com 1.10,2013-12-10 20:46:00,
2013-12-10 16:01:00,81.5,72.0,30.10,West,263,0.0,-999.0,73,-99.99,,,0.00,weatherlink.com 1.10,2013-12-10 21:01:00,
2013-12-10 16:16:00,80.9,72.0,30.10,West,265,0.0,-999.0,73,-99.99,,,0.00,weatherlink.com 1.10,2013-12-10 21:16:00,
2013-12-10 16:31:00,80.5,71.0,30.11,West,265,0.0,-999.0,72,-99.99,,,0.00,weatherlink.com 1.10,2013-12-10 21:31:00,
2013-12-10 16:46:00,80.0,71.0,30.11,West,265,3.0,-999.0,74,-99.99,,,0.00,weatherlink.com 1.10,2013-12-10 21:46:00,
2013-12-10 17:01:00,79.3,71.0,30.11,West,265,0.0,-999.0,76,-99.99,,,0.00,weatherlink.com 1.10,2013-12-10 22:01:00,
2013-12-10 17:16:00,78.5,72.0,30.12,West,266,1.0,-999.0,79,-99.99,,,0.00,weatherlink.com 1.10,2013-12-10 22:16:00,
2013-12-10 17:31:00,77.7,72.0,30.12,West,266,0.0,-999.0,82,-99.99,,,0.00,weatherlink.com 1.10,2013-12-10 22:31:00,
2013-12-10 17:46:00,76.9,72.0,30.12,West,266,0.0,-999.0,84,-99.99,,,0.00,weatherlink.com 1.10,2013-12-10 22:46:00,
2013-12-10 18:16:00,75.5,71.0,30.12,West,266,0.0,-999.0,87,-99.99,,,0.00,weatherlink.com 1.10,2013-12-10 23:16:00,
2013-12-10 18:31:00,74.9,72.0,30.13,West,266,0.0,-999.0,89,-99.99,,,0.00,weatherlink.com 1.10,2013-12-10 23:31:00,
2013-12-10 18:46:00,74.4,71.0,30.14,West,266,0.0,-999.0,90,-99.99,,,0.00,weatherlink.com 1.10,2013-12-10 23:46:00,
2013-12-10 19:01:00,73.7,71.0,30.14,West,266,0.0,-999.0,92,-99.99,,,0.00,weatherlink.com 1.10,2013-12-11 00:01:00,
2013-12-10 19:16:00,73.2,71.0,30.14,West,266,0.0,-999.0,93,-99.99,,,0.00,weatherlink.com 1.10,2013-12-11 00:16:00,
2013-12-10 19:31:00,73.0,71.0,30.15,West,266,0.0,-999.0,93,-99.99,,,0.00,weatherlink.com 1.10,2013-12-11 00:31:00,
2013-12-10 19:46:00,72.8,71.0,30.15,West,266,0.0,-999.0,94,-99.99,,,0.00,weatherlink.com 1.10,2013-12-11 00:46:00,
2013-12-10 20:01:00,72.5,71.0,30.15,West,266,0.0,-999.0,95,-99.99,,,0.00,weatherlink.com 1.10,2013-12-11 01:01:00,
2013-12-10 20:16:00,71.9,71.0,30.16,West,266,0.0,-999.0,95,-99.99,,,0.00,weatherlink.com 1.10,2013-12-11 01:16:00,
2013-12-10 20:31:00,72.2,71.0,30.16,West,266,0.0,-999.0,95,-99.99,,,0.00,weatherlink.com 1.10,2013-12-11 01:31:00,
2013-12-10 20:46:00,72.0,71.0,30.16,West,266,0.0,-999.0,96,-99.99,,,0.00,weatherlink.com 1.10,2013-12-11 01:46:00,
2013-12-10 21:01:00,71.8,71.0,30.16,West,266,0.0,-999.0,96,-99.99,,,0.00,weatherlink.com 1.10,2013-12-11 02:01:00,
2013-12-10 21:16:00,71.5,70.0,30.17,West,266,0.0,-999.0,95,-99.99,,,0.00,weatherlink.com 1.10,2013-12-11 02:16:00,
2013-12-10 21:31:00,71.1,70.0,30.17,West,266,0.0,-999.0,96,-99.99,,,0.00,weatherlink.com 1.10,2013-12-11 02:31:00,
2013-12-10 21:46:00,71.0,70.0,30.18,West,266,0.0,-999.0,96,-99.99,,,0.00,weatherlink.com 1.10,2013-12-11 02:46:00,
2013-12-10 22:01:00,71.1,70.0,30.18,West,266,0.0,-999.0,97,-99.99,,,0.00,weatherlink.com 1.10,2013-12-11 03:01:00,
2013-12-10 22:16:00,71.3,70.0,30.18,West,266,0.0,-999.0,97,-99.99,,,0.00,weatherlink.com 1.10,2013-12-11 03:16:00,
2013-12-10 22:31:00,71.3,70.0,30.18,West,266,0.0,-999.0,97,-99.99,,,0.00,weatherlink.com 1.10,2013-12-11 03:31:00,
2013-12-10 22:46:00,71.3,70.0,30.18,West,266,0.0,-999.0,97,-99.99,,,0.00,weatherlink.com 1.10,2013-12-11 03:46:00,
2013-12-10 23:01:00,71.2,70.0,30.18,West,266,0.0,-999.0,97,-99.99,,,0.00,weatherlink.com 1.10,2013-12-11 04:01:00,
2013-12-10 23:31:00,70.5,70.0,30.18,West,266,0.0,-999.0,97,-99.99,,,0.00,weatherlink.com 1.10,2013-12-11 04:31:00,
2013-12-10 23:46:00,70.1,69.0,30.18,West,266,0.0,-999.0,97,-99.99,,,0.00,weatherlink.com 1.10,2013-12-11 04:46:00,